Regional Weather Roundup
Issued by NWS

Home | Current Version | Previous Version | Text Only | Print | Product List | Glossary On
Versions: 1 2 3 4 5 6 7 8 9 10 11 12 13 14 15 16 17 18 19 20 21 22 23 24 25 26 27 28 29 30 31 32 33 34 35 36 37 38 39 40 41 42 43 44 45 46 47 48 49 50
000
ASUS43 KDMX 311307
RWRIA

WEATHER ROUNDUP FOR IOWA
NATIONAL WEATHER SERVICE DES MOINES IA
800 AM CDT THU JUL 31 2014

NOTE: "FAIR" INDICATES FEW OR NO CLOUDS BELOW 12,000 FEET WITH NO
SIGNIFICANT WEATHER AND/OR OBSTRUCTIONS TO VISIBILITY.

* - THESE STATIONS ARE NOT NWS STATIONS...THUS NOT UNDER NWS
QUALITY CONTROL.  THEY ALSO DO NOT REPORT WEATHER SUCH
AS PRECIPITATION OR FOG.

IAZ001>003-012>014-020>022-031>034-043>046-311400-
   NORTHWEST IOWA

CITY           SKY/WX    TMP DP  RH WIND       PRES   REMARKS
CARROLL *      SUNNY     59  55  88 CALM      30.10F
CHEROKEE *     SUNNY     55  55 100 CALM      30.11S
DENISON *      SUNNY     57  57 100 CALM      30.10R
LE MARS *      SUNNY     59  55  88 CALM      30.10S
ORANGE CITY *  SUNNY     63  54  72 CALM      30.10S
SHELDON *      SUNNY     57  55  94 CALM      30.10S
SIOUX CITY     SUNNY     59  56  89 SE5       30.09S
SPENCER        MOSUNNY   59  55  87 CALM      30.11S
STORM LAKE *   SUNNY     63  59  88 W6        30.12S
$$

IAZ055>058-069>071-079>083-090>094-311400-
   SOUTHWEST IOWA

CITY           SKY/WX    TMP DP  RH WIND       PRES   REMARKS
ATLANTIC *     SUNNY     55  54  94 CALM      30.11S
AUDUBON *      SUNNY     59  55  88 CALM      30.12S
CLARINDA *     SUNNY     55  55 100 CALM      30.13S
COUNCIL BLFS * SUNNY     64  61  88 CALM      30.10S
CRESTON *      SUNNY     61  57  88 CALM      30.12S
HARLAN  *      SUNNY     55  55 100 CALM      30.14F FOG
LAMONI         SUNNY     64  58  80 CALM      30.11S
RED OAK *      SUNNY     57  55  94 CALM      30.12S
SHENANDOAH *   SUNNY     55  55 100 CALM      30.12S
$$

IAZ047>049-059>061-072>074-084-311400-
   CENTRAL IOWA

CITY           SKY/WX    TMP DP  RH WIND       PRES   REMARKS
AMES           SUNNY     61  57  87 CALM      30.10R
ANKENY *       SUNNY     61  59  94 CALM      30.10S
CHARITON *     SUNNY     63  57  82 CALM      30.11S
DES MOINES     SUNNY     63  57  81 W3        30.10S
GRINNELL*      SUNNY     63  59  88 W5        30.10S
KNOXVILLE *    SUNNY     63  57  82 W3        30.09S
MARSHALLTOWN   SUNNY     62  59  90 CALM      30.09R
PELLA *        SUNNY     66  64  94 CALM      30.11S
PERRY *          N/A     59  57  94 CALM      30.11R
$$

IAZ004>006-015-016-023>025-035-036-311400-
   NORTH CENTRAL IOWA

CITY           SKY/WX    TMP DP  RH WIND       PRES   REMARKS
ALGONA *       CLOUDY    64  59  82 W6        30.10S
CLARION *      SUNNY     61  59  94 CALM      30.10S
ESTHERVILLE    MOSUNNY   61  57  87 W5        30.10R
FORT DODGE *   SUNNY     59  55  88 CALM      30.11S
MASON CITY     MOSUNNY   64  58  80 W5        30.10S
FOREST CITY *  MOSUNNY   61  61 100 CALM      30.09S
IOWA FALLS *     N/A     63  59  88 CALM      30.11S
$$

IAZ007>011-017>019-026>030-037>042-050>054-066-311400-
   NORTHEAST IOWA

CITY           SKY/WX    TMP DP  RH WIND       PRES   REMARKS
CEDAR RAPIDS   SUNNY     63  60  90 W3        30.08R
CHARLES CITY * SUNNY     61  57  88 W5        30.09S
CLINTON *      SUNNY     61  57  88 W5        30.09S
DECORAH *      SUNNY     61  57  88 W3        30.06R
DUBUQUE        SUNNY     61  60  97 SW5       30.07R
MONTICELLO *   SUNNY     63  61  94 CALM      30.07R
OELWEIN *      SUNNY     61  59  94 NW6       30.09R
WATERLOO       SUNNY     62  58  86 W5        30.08R
$$

IAZ064-065-067-068-078-311400-
   EAST CENTRAL IOWA

CITY           SKY/WX    TMP DP  RH WIND       PRES   REMARKS
DAVENPORT      SUNNY     62  59  90 W6        30.08R FOG
IOWA CITY      SUNNY     63  60  90 SW3       30.09R
MT. PLEASANT * SUNNY     64  61  88 CALM      30.10R
MUSCATINE *    SUNNY     64  61  88 CALM      30.08S
QUAD CITIES    SUNNY     65  61  87 W3        30.07R
$$

IAZ062-063-075>077-085>089-095>099-311400-
   SOUTHEAST IOWA

CITY           SKY/WX    TMP DP  RH WIND       PRES   REMARKS
BURLINGTON     SUNNY     63  61  93 CALM      30.09R
FAIRFIELD *    SUNNY     64  59  82 W5        30.10R
FORT MADISON * SUNNY     66  63  88 CALM      30.10R
KEOKUK *       SUNNY     64  63  94 SW5       30.09R
OSKALOOSA *      N/A     63  59  88 W5        30.10S
CENTERVILLE *  SUNNY     63  59  88 W5        30.13R
OTTUMWA        SUNNY     63  59  87 W5        30.09S
WASHINGTON *   SUNNY     63  61  94 W3        30.09S
$$

ABBREVIATIONS USED IN REMARKS
   TC - TEMPERATURES IN CELSIUS
  WCI - WIND CHILL INDEX
   HX - HEAT INDEX
  VSB - VISIBILITY
$$




USA.gov is the U.S. government's official web portal to all federal, state and local government web resources and services.